Find Starlink 32261

NORAD ID: 61530 Int'l Des: 2024-183 Owner: SPXS Country: US Constellation: starlink operational
LEOCIRCULAR

現在のビュー

3D地球を読み込み中...

Starlink 32261について

説明を読み込み中...

次回通過

Passes for default location (London). Set your location on the main map for personalized predictions.

高度履歴

Loading altitude history...

軌道要素

1 61530U 24183X 26150.07289385 -.00000256 00000-0 35065-5 0 9997
2 61530 53.1596 124.3612 0001131 75.1441 284.9686 15.31704086 92114
Epoch: May 30, 2026 • Age: 7 hours

現在のステータス

高度 475.7 km
速度 7.63 km/s
衛星直下点 49.55°N, 171.26°E
打ち上げ日 Oct 15, 2024
運用期間 1.6 years
タイプ internet

技術仕様

分類 Payload
質量 730.00 kg
乾燥質量 700.00 kg
総質量 730.00 kg
長さ 0.30 m
直径 4.10 m
スパン 29.00 m
形状 Box + pan
製造者 SPXS
バスタイプ Starlink V2M
フェーズステータス In Orbit
所有者/国 SPXS/US

Most Searched